Notices

What's New in latest Release from April 7th, 2021:

- Updated Glossary, including Speed of Maximum Gust, and Total Hourly Precipitation

- Updated national and regional climate services offices contacts and prices information

- Addition of station inventory lists for 1981-2010, 1971-2000, and 1961-1990 Normals.

If you haven't already, please take our survey and provide feedback about our website: https://eccc.sondage-survey.ca/f/LanguageSelection.aspx?s=442ca660-fcf1-47c0-95a9-59707d6fd709

Hourly Data Report for November 19, 2017

VICTORIA UNIVERSITY CS
BRITISH COLUMBIA

48°27'25.200" N
123°18'16.600" W
60.10 m
1018598
71783
WYJ

Download Data

Hourly Data (November 2017)
Hourly Data Report for November 19, 2017
TIME
LST
Temp Definition
°C
Dew Point Definition
°C
Rel Hum Definition
%
Precip. Amount Definition
mm

Wind Dir Definition
10's deg

Wind Spd Definition
km/h
Visibility Definition
km
Stn Press Definition
kPa
Hmdx Definition


Wind Chill Definition


Weather Definition


00:00 6.6 5.6 93 0.0 0 1   100.88     LegendNANA
01:00 6.9 5.8 93 0.0 7 4   100.79     LegendNANA
02:00 7.5 5.8 89 0.0 9 3   100.72     LegendNANA
03:00 7.5 5.7 88 0.0 9 3   100.62     LegendNANA
04:00 7.7 6.0 89 0.0 12 2   100.55     LegendNANA
05:00 7.4 5.2 86 0.0 0 1   100.49     LegendNANA
06:00 7.8 4.9 82 0.0 15 4   100.34     LegendNANA
07:00 7.9 5.5 84 0.0 14 6   100.26     LegendNANA
08:00 7.7 5.4 85 0.0 14 4   100.14     LegendNANA
09:00 7.8 5.8 87 0.0 14 4   100.00     LegendNANA
10:00 8.4 5.5 82 0.0 16 5   99.85     LegendNANA
11:00 8.2 5.2 82 0.0 14 6   99.74     LegendNANA
12:00 8.7 5.5 80 0.0 15 4   99.65     LegendNANA
13:00 7.9 5.6 85 0.4 14 3   99.59     LegendNANA
14:00 8.4 6.4 87 0.5 14 5   99.39     LegendNANA
15:00 8.5 6.0 84 0.0 15 4   99.34     LegendNANA
16:00 8.2 6.5 89 0.5 12 2   99.34     LegendNANA
17:00 7.6 6.8 94 1.8 10 2   99.31     LegendNANA
18:00 7.4 6.7 95 2.7 13 3   99.24     LegendNANA
19:00 7.0 6.1 94 1.6 14 2   99.27     LegendNANA
20:00 6.8 5.7 92 0.0 12 3   99.21     LegendNANA
21:00 6.8 5.3 91 0.2 14 4   99.24     LegendNANA
22:00 6.8 5.6 92 0.4 9 3   99.26     LegendNANA
23:00 6.6 5.8 95 1.1 11 5   99.30     LegendNANA

Notes on Data Quality.

Legend

  • E = Estimated
  • M = Missing
  • NA = Not Available*
  • [empty] = Indicates an unobserved value
Date modified: